Find Starlink 11197

NORAD ID: 60186 Int'l Des: 2024-124 Owner: SPXS Country: US Constellation: starlink operational
LEOCIRCULAR

Current View

Loading 3D Globe...

About Starlink 11197

Starlink 11197 (NORAD 60186) is a starlink constellation satellite (v2 mini d2c) launched Jul 3, 2024 by SPXS of US. It operates in LEO, CIRCULAR orbit with a mass of 960.00 kg.

About Starlink 11197

Description loading...

Upcoming Passes

Passes for default location (London). Set your location on the main map for personalized predictions.

Altitude History

Loading altitude history...

Two-Line Element Set

1 60186U 24124D 26171.30006959 .00002029 00000-0 21602-4 0 9991
2 60186 53.1591 15.1713 0000789 98.9334 261.1773 15.69703728112655
Epoch: Jun 20, 2026 • Age: 37 hours

Current Status

Altitude 363.4 km
Velocity 7.70 km/s
Sub-Earth Point 42.70°N, 71.85°W
Launch Date Jul 3, 2024
Age 1.9 years
Type internet

Technical Details

Classification Payload
Mass 960.00 kg
Dry Mass 910.00 kg
Total Mass 960.00 kg
Length 0.30 m
Diameter 4.10 m
Span 29.00 m
Shape Box + pan
Manufacturer SPXS
Bus Type Starlink V2MD
Phase Status In Orbit
Owner/State SPXS/US

Most Searched